Zurück zum Katalog

STARLINK-31726

AktivKommunikationVLEO
NORAD 59739·PAYLOAD·🇺🇸 United States

Gestartet May 13, 2024 von Cape Canaveral Space Force Station

Loading…

Nächste Überflüge (nächste 24 Stunden)

TLE

AktuellSource: CelesTrak SupGP

Epoche: Sep 14, 2026, 22:17 UTC

1 59739C 24090K   26257.92895833 -.00015773  00000+0 -57115-3 0  2570
2 59739  42.9996 194.4656 0000937 261.8236 160.6872 15.27596057    14

Verfolge STARLINK-31726 in Echtzeit mit AllMySat

Download on the App Store